sat.trackr.live / text

‹ back to catalog

COSMO

NORAD 68460 · 2026-067AW

PAYLOAD ACTIVE UNKNOWN

§ Identity

Operator
Country
US
Launch date
2026-03-30
Launch site
AFWTR
Launch vehicle
Mass (kg)
RCS (m²)

External: N2YO · Heavens-Above · Gunter

§ Orbital elements

Epoch: 2026-09-20T04:37:21.402048Z

Period
94.76 min
Inclination
97.4582°
Eccentricity
0.0008035
Mean motion
15.19629188 rev/d
Perigee alt
501.4 km
Apogee alt
512.5 km
Semi-major
6,885.1 km
B*
3.6684e-4
RAAN
220.1870°
Arg perigee
96.2074°
Mean anomaly
264.0076°
Rev number
2,635

§ Raw data

COSMO1 68460U 26067AW  26263.19260882  .00007757  00000+0  36684-3 0  99952 68460  97.4582 220.1870 0008035  96.2074 264.0076 15.19629188 26356

JSON: /api/v1/satellites/68460 · /tle

For live sub-satellite position, see the globe view (requires WebGL).

§ Visibility from observer

Set your observer location to see the next 7 days of passes ≥ 10°. The values pass through the URL so the page stays shareable.

No JS? Fill the form by hand. The geolocation button needs JavaScript.

§ Radio — SatNOGS DB

ModeDescriptionDownlinkUplink
OQPSK Mode S - OQPSK 4m - CCSDS 2.222 GHz
GMSK SpaceQuest TRX-U 401.200 MHz

2 transmitters · refreshed weekly from db.satnogs.org